2000 DN8  

Epoch 2000 Mar. 17.0 TT = JDT 2451620.5                 Nakano

M  88.14161              (2000.0)            P               Q

n   0.38408986     Peri.  269.19797     +0.57163669     -0.70362766

a   1.8743362      Node   135.36201     +0.75177879     +0.65523320

e   0.3987094      Incl.   36.91995     -0.32872503     +0.27491376

P   2.57           H   15.5           G   0.15           U   *

Residuals in seconds of arc 

000227 704  0.1-  0.2+    000228 850  1.3-  0.6+    000229 704  0.7+  0.4+  

000227 704  0.4-  0.1-    000228 850  0.7-  0.2-    000301 402  0.3+  0.7-  

000227 704  0.1-  0.6+    000228 344  0.2-  0.1+    000301 402  0.3+  0.1+  

000227 704  0.8+  0.2-    000228 344  0.1-  0.2+    000301 402  0.3-  0.4-  

000227 704  0.4-  0.5-    000228 344  0.3-  0.1-    000301 402  0.1-  0.1-  

000228 046  0.1+  1.0-    000228 344  0.6-  0.2+    000302 651  0.8-  0.7+  

000228 046  0.0   0.1-    000228 344  0.5-  0.2+    000302 651  0.8-  0.6+  

000228 046  0.3+  0.4-    000228 413  0.2+  0.3+    000302 651  0.6-  0.8+  

000228 046  0.3+  0.1+    000228 413  0.8-  0.3+    000302 344  0.4+  0.6+  

000228 046  0.0   0.2-    000228 413  0.1+  0.4-    000302 344  0.3+  0.5+  

000228 046  0.4-  0.3+    000228 557  0.3+  0.1-    000302 344  0.3+  0.5+  

000228 118  0.8+  0.2-    000228 557  0.2-  0.2-    000306 360  0.4+  0.0   

000228 118  0.3+  0.7-    000228 557  0.1+  0.1+    000306 360  0.4+  0.0   

000228 118  0.1-  0.7-    000229 118  1.0+  0.1-    000306 360  0.3+  0.2-  

000228 858  0.1+  0.3-    000229 118  0.4-  0.3+    000309 587  0.7-  1.3-  

000228 858  0.6-  0.6-    000229 118  0.8+  0.1+    000309 587  0.4-  0.8-  

000228 858  0.4+  0.9-    000229 704  0.5+  0.1+    000309 587  0.2-  0.3-  

000228 850  0.5-  1.0+    000229 704  0.8+  0.2-    000314 402  0.0   0.7+  

000228 850  0.5-  1.3+    000229 704  0.7+  0.1+    000314 402  0.2+  0.3+  

000228 850  0.3+  0.1-    000229 704  0.4+  0.1-    000314 402  0.0   0.1+  

 

NAKANO

         **** Don't distribute anyone except personal use only ****

                (C) Copyright 2000 OAA/ComputingSection

write mail from CFAD0::NAKANO on 2000-03-15 23:50:44(JST).



 2000 DN8  

Epoch 2000 Feb. 26.0 TT = JDT 2451600.5                 Nakano

M  80.29936              (2000.0)            P               Q

n   0.38386974     Peri.  269.31530     +0.57052012     -0.70460175

a   1.8750526      Node   135.34642     +0.75300702     +0.65386853

e   0.3988387      Incl.   36.89644     -0.32785243     +0.27566706

P   2.57           H   15.5           G   0.15           U   *



NAKANO

         **** Don't distribute anyone except personal use only ****

                (C) Copyright 2000 OAA/ComputingSection

write mail from CFAD0::NAKANO on 2000-03-08 04:10:59(JST).

 





–ß‚è‚Ü‚·B